Tracking 34138 objects as of 17-May-2026
HD Live streaming from Space Station
objects crossing your sky now

STARLINK-36204

Track STARLINK-36204 now!
10-day predictions
STARLINK-36204 is classified as:


NORAD ID: 68549
Int'l Code: 2026-070H
Perigee: 424.8 km
Apogee: 426.8 km
Inclination: 53.2 °
Period: 92.9 minutes
Semi major axis: 6796 km
RCS: Unknown
Launch date: April 2, 2026
Source: United States (US)
Launch site: AIR FORCE EASTERN TEST RANGE (AFETR)
Your satellite tracking list
Your tracking list is empty




NASA's NSSDC Master Catalog

Two Line Element Set (TLE):
1 68549U 26070H   26136.04886411  .00068423  00000-0  12263-2 0  9996
2 68549  53.1618  50.0082 0001421  98.6345 261.4825 15.49338189  6865
Source of the keplerian elements: AFSPC